EW5026 Weather Reports


Display with metric or nautical units.
time (UTC)temp
F
wind
direction
speed
MPH
gust
MPH
rain 1hr
in
rain 24hr
in
rain mn
in
humidity
%
barometer
mb
20260905231510 80 5 3.0 9.0 0.00 0.00 0.00 77 1012.0
20260905231011 80 20 3.0 11.0 0.00 0.00 0.00 77 1011.9
20260905230508 80 317 5.0 13.0 0.00 0.00 0.00 76 1011.7
20260905230008 81 355 6.0 13.0 0.00 0.00 0.00 75 1011.6
20260905225508 81 5 5.0 11.0 0.00 0.00 0.00 76 1011.7
20260905225008 81 12 6.0 14.0 0.00 0.00 0.00 75 1011.8
20260905224508 81 15 6.0 14.0 0.00 0.00 0.00 76 1011.7
20260905224012 82 355 7.0 13.0 0.00 0.00 0.00 74 1011.7
20260905223507 82 346 8.0 13.0 0.00 0.00 0.00 74 1011.5
20260905223017 82 360 7.0 13.0 0.00 0.00 0.00 74 1011.4
20260905222508 83 13 6.0 13.0 0.00 0.00 0.00 74 1011.4
20260905222007 83 18 8.0 13.0 0.00 0.00 0.00 73 1011.4
20260905221506 84 9 6.0 11.0 0.00 0.00 0.00 74 1011.4
20260905221007 84 355 7.0 13.0 0.00 0.00 0.00 72 1011.4
20260905220506 84 355 7.0 13.0 0.00 0.00 0.00 73 1011.4
20260905220006 84 360 4.0 9.0 0.00 0.00 0.00 73 1011.4
20260905215510 84 12 5.0 11.0 0.00 0.00 0.00 73 1011.4
20260905215008 84 355 6.0 12.0 0.00 0.00 0.00 72 1011.3
20260905214508 84 15 6.0 12.0 0.00 0.00 0.00 72 1011.2
20260905214006 84 343 7.0 13.0 0.00 0.00 0.00 72 1011.1
20260905213505 84 42 6.0 13.0 0.00 0.00 0.00 73 1011.1
20260905213007 85 13 7.0 13.0 0.00 0.00 0.00 72 1011.1
20260905212505 85 23 8.0 13.0 0.00 0.00 0.00 72 1011.1
20260905212006 85 46 5.0 12.0 0.00 0.00 0.00 72 1011.1
20260905211515 85 26 7.0 13.0 0.00 0.00 0.00 71 1011.0
20260905211004 86 20 7.0 13.0 0.00 0.00 0.00 71 1011.0
20260905210504 86 28 3.0 14.0 0.00 0.00 0.00 73 1011.0
20260905210004 86 25 6.0 14.0 0.00 0.00 0.00 71 1011.0
20260905205503 86 5 7.0 13.0 0.00 0.00 0.00 72 1011.1
20260905205003 87 22 5.0 12.0 0.00 0.00 0.00 71 1011.0
20260905204503 87 22 7.0 15.0 0.00 0.00 0.00 70 1011.1
20260905204005 87 350 8.0 15.0 0.00 0.00 0.00 70 1011.1
20260905203502 87 355 8.0 13.0 0.00 0.00 0.00 69 1011.0
20260905203003 87 49 7.0 13.0 0.00 0.00 0.00 70 1011.0
20260905202506 87 40 8.0 13.0 0.00 0.00 0.00 69 1011.1
20260905202001 88 47 7.0 13.0 0.00 0.00 0.00 69 1011.0
20260905201503 88 27 5.0 12.0 0.00 0.00 0.00 71 1011.1
20260905201002 88 5 7.0 12.0 0.00 0.00 0.00 69 1011.1
20260905200502 88 27 5.0 12.0 0.00 0.00 0.00 69 1011.0
20260905195601 89 5 7.0 11.0 0.00 0.00 0.00 68 1011.1
20260905195100 89 5 5.0 10.0 0.00 0.00 0.00 70 1011.0
20260905194600 89 19 4.0 11.0 0.00 0.00 0.00 70 1011.0
20260905194100 89 22 6.0 11.0 0.00 0.00 0.00 69 1011.0
20260905193559 89 323 4.0 10.0 0.00 0.00 0.00 72 1010.9
20260905193059 88 5 3.0 12.0 0.00 0.00 0.00 71 1010.9
20260905192600 89 15 6.0 12.0 0.00 0.00 0.00 68 1011.0
20260905192059 89 29 5.0 11.0 0.00 0.00 0.00 69 1011.0
20260905191558 89 15 5.0 11.0 0.00 0.00 0.00 69 1011.1
20260905191058 89 16 5.0 10.0 0.00 0.00 0.00 68 1011.1
20260905190558 89 355 5.0 10.0 0.00 0.00 0.00 69 1011.1
20260905185557 89 348 3.0 9.0 0.00 0.00 0.00 69 1011.2
20260905185059 89 360 4.0 9.0 0.00 0.00 0.00 70 1011.4
20260905184604 89 26 5.0 9.0 0.00 0.00 0.00 70 1011.3
20260905184058 89 338 4.0 8.0 0.00 0.00 0.00 72 1011.3
20260905183556 89 337 5.0 8.0 0.00 0.00 0.00 72 1011.5
20260905183110 89 355 3.0 8.0 0.00 0.00 0.00 73 1011.5
20260905182556 89 41 4.0 9.0 0.00 0.00 0.00 72 1011.3
20260905182055 89 19 4.0 9.0 0.00 0.00 0.00 72 1011.4
20260905181555 89 35 5.0 9.0 0.00 0.00 0.00 71 1011.3
20260905181054 89 30 4.0 9.0 0.00 0.00 0.00 73 1011.3
20260905180554 89 360 5.0 8.0 0.00 0.00 0.00 73 1011.3
20260905180056 89 33 4.0 8.0 0.00 0.00 0.00 72 1011.3
20260905175554 89 360 4.0 10.0 0.00 0.00 0.00 74 1011.4
20260905175054 89 23 4.0 10.0 0.00 0.00 0.00 74 1011.3
20260905174553 89 335 4.0 10.0 0.00 0.00 0.00 74 1011.3
20260905174057 89 34 5.0 10.0 0.00 0.00 0.00 75 1011.3
20260905173553 89 9 6.0 10.0 0.00 0.00 0.00 73 1011.3
20260905173052 90 42 4.0 9.0 0.00 0.00 0.00 72 1011.3
20260905172555 90 53 2.0 8.0 0.00 0.00 0.00 72 1011.4
20260905172052 90 23 4.0 8.0 0.00 0.00 0.00 73 1011.4
20260905171553 90 35 3.0 7.0 0.00 0.00 0.00 74 1011.4
20260905171050 89 340 4.0 8.0 0.00 0.00 0.00 74 1011.5
20260905170550 90 13 4.0 8.0 0.00 0.00 0.00 75 1011.5
20260905165554 89 355 4.0 8.0 0.00 0.00 0.00 74 1011.6
20260905165049 89 22 4.0 9.0 0.00 0.00 0.00 77 1011.7
20260905164552 89 53 5.0 10.0 0.00 0.00 0.00 74 1011.8
20260905164048 89 5 5.0 10.0 0.00 0.00 0.00 75 1011.8
20260905163549 89 330 5.0 10.0 0.00 0.00 0.00 75 1011.8
20260905163048 89 5 3.0 10.0 0.00 0.00 0.00 77 1011.7
20260905162548 89 355 4.0 9.0 0.00 0.00 0.00 77 1011.6
20260905162046 88 350 4.0 9.0 0.00 0.00 0.00 76 1011.7
20260905161546 89 348 4.0 8.0 0.00 0.00 0.00 76 1011.6
20260905161046 89 360 4.0 9.0 0.00 0.00 0.00 77 1011.6
20260905160545 89 334 5.0 9.0 0.00 0.00 0.00 76 1011.5
20260905160046 89 360 3.0 8.0 0.00 0.00 0.00 78 1011.4
20260905155545 89 15 3.0 8.0 0.00 0.00 0.00 78 1011.4
20260905155043 89 10 3.0 6.0 0.00 0.00 0.00 79 1011.5
20260905154544 88 319 3.0 7.0 0.00 0.00 0.00 78 1011.6
20260905154043 88 5 3.0 7.0 0.00 0.00 0.00 79 1011.6
20260905153541 88 333 2.0 7.0 0.00 0.00 0.00 79 1011.5
20260905153040 87 12 3.0 7.0 0.00 0.00 0.00 79 1011.4
20260905152541 87 296 3.0 7.0 0.00 0.00 0.00 81 1011.4
20260905152040 87 47 1.0 7.0 0.00 0.00 0.00 82 1011.4
20260905151538 86 30 4.0 7.0 0.00 0.00 0.00 80 1011.2
20260905151036 86 36 3.0 5.0 0.00 0.00 0.00 82 1011.3
20260905150537 86 30 3.0 6.0 0.00 0.00 0.00 81 1011.3
20260905150037 86 360 2.0 6.0 0.00 0.00 0.00 80 1011.3
20260905145537 86 355 3.0 6.0 0.00 0.00 0.00 80 1011.3
20260905145036 86 13 3.0 6.0 0.00 0.00 0.00 80 1011.3
20260905144537 87 5 4.0 7.0 0.00 0.00 0.00 79 1011.2
20260905144035 86 335 3.0 7.0 0.00 0.00 0.00 80 1011.1
20260905143540 86 360 2.0 6.0 0.00 0.00 0.00 81 1011.1
20260905143035 86 342 2.0 5.0 0.00 0.00 0.00 81 1011.1
20260905142535 86 355 2.0 6.0 0.00 0.00 0.00 80 1011.0
20260905142033 86 5 3.0 6.0 0.00 0.00 0.00 81 1011.0
20260905141532 86 15 2.0 5.0 0.00 0.00 0.00 81 1010.9
20260905141033 85 336 0.0 4.0 0.00 0.00 0.00 83 1011.0
20260905140530 85 288 1.0 4.0 0.00 0.00 0.00 83 1011.1
20260905140029 84 349 0.0 3.0 0.00 0.00 0.00 86 1011.1
20260905135529 83 288 0.0 3.0 0.00 0.00 0.00 86 1011.3
20260905135027 83 309 0.0 3.0 0.00 0.00 0.00 86 1011.4
20260905134530 83 289 0.0 4.0 0.00 0.00 0.00 87 1011.6
20260905134025 82 269 0.0 4.0 0.00 0.00 0.00 86 1011.5
20260905133523 82 242 1.0 4.0 0.00 0.00 0.00 87 1011.3
20260905133022 82 249 0.0 0.0 0.00 0.00 0.00 90 1011.2
20260905132520 81 249 0.0 0.0 0.00 0.00 0.00 90 1011.2
20260905132019 80 220 0.0 0.0 0.00 0.00 0.00 92 1011.0
20260905131518 79 220 0.0 1.0 0.00 0.00 0.00 93 1011.0
20260905131018 79 211 0.0 2.0 0.00 0.00 0.00 95 1011.0
20260905130515 78 68 0.0 2.0 0.00 0.00 0.00 96 1010.9
20260905130014 78 68 0.0 1.0 0.00 0.00 0.00 96 1010.8
20260905125512 77 68 0.0 2.0 0.00 0.00 0.00 96 1010.8
20260905125013 76 68 0.0 2.0 0.00 0.00 0.00 96 1010.8
20260905124516 75 24 0.0 1.0 0.00 0.00 0.00 96 1010.8
20260905124012 75 24 0.0 0.0 0.00 0.00 0.00 96 1010.7
20260905123512 75 24 0.0 0.0 0.00 0.00 0.00 96 1010.7
20260905123012 74 24 0.0 0.0 0.00 0.00 0.00 95 1010.7
20260905122512 74 24 0.0 0.0 0.00 0.00 0.00 95 1010.8
20260905122012 74 24 0.0 0.0 0.00 0.00 0.00 96 1010.7
20260905121512 74 24 0.0 0.0 0.00 0.00 0.00 95 1010.7
20260905121012 73 24 0.0 0.0 0.00 0.00 0.00 96 1010.7
20260905120512 73 24 0.0 0.0 0.00 0.00 0.00 95 1010.6
20260905120010 73 24 0.0 0.0 0.00 0.00 0.00 95 1010.6
20260905115511 73 24 0.0 0.0 0.00 0.00 0.00 95 1010.5
20260905115011 73 24 0.0 0.0 0.00 0.00 0.00 95 1010.5
20260905114510 73 24 0.0 0.0 0.00 0.00 0.00 95 1010.4
20260905114010 72 24 0.0 0.0 0.00 0.00 0.00 95 1010.4
20260905113510 72 24 0.0 0.0 0.00 0.00 0.00 95 1010.5
20260905113010 72 24 0.0 0.0 0.00 0.00 0.00 95 1010.6
20260905112510 72 24 0.0 0.0 0.00 0.00 0.00 94 1010.6
20260905112008 72 24 0.0 0.0 0.00 0.00 0.00 94 1010.5
20260905111513 72 24 0.0 0.0 0.00 0.00 0.00 94 1010.4
20260905111007 72 24 0.0 0.0 0.00 0.00 0.00 94 1010.3
20260905110507 72 24 0.0 0.0 0.00 0.00 0.00 94 1010.2
20260905110008 72 24 0.0 0.0 0.00 0.00 0.00 94 1010.2
20260905105511 72 24 0.0 0.0 0.00 0.00 0.00 94 1010.1
20260905105006 72 24 0.0 0.0 0.00 0.00 0.00 94 1010.2
20260905104506 73 24 0.0 0.0 0.00 0.00 0.00 94 1010.2
20260905104006 73 24 0.0 0.0 0.00 0.00 0.00 94 1010.3
20260905103506 73 24 0.0 0.0 0.00 0.00 0.00 94 1010.3
20260905103006 73 24 0.0 0.0 0.00 0.00 0.00 94 1010.3
20260905102505 73 24 0.0 0.0 0.00 0.00 0.00 94 1010.3
20260905102004 73 24 0.0 1.0 0.00 0.00 0.00 94 1010.4
20260905101505 73 24 0.0 1.0 0.00 0.00 0.00 94 1010.5
20260905101005 73 24 0.0 0.0 0.00 0.00 0.00 94 1010.4
20260905100504 73 24 0.0 0.0 0.00 0.00 0.00 94 1010.4
20260905100006 73 24 0.0 3.0 0.00 0.00 0.00 94 1010.4
20260905095504 73 24 0.0 3.0 0.00 0.00 0.00 94 1010.4
20260905095003 73 5 0.0 3.0 0.00 0.00 0.00 94 1010.3
20260905094503 73 277 0.0 0.0 0.00 0.00 0.00 93 1010.1
20260905094002 73 277 0.0 0.0 0.00 0.00 0.00 93 1010.1
20260905093502 73 277 0.0 0.0 0.00 0.00 0.00 93 1010.1
20260905093001 73 277 0.0 0.0 0.00 0.00 0.00 93 1010.1
20260905092501 74 277 0.0 0.0 0.00 0.00 0.00 94 1010.1
20260905092100 74 277 0.0 0.0 0.00 0.00 0.00 93 1010.2
20260905091601 74 277 0.0 0.0 0.00 0.00 0.00 93 1010.2
20260905091102 74 277 0.0 0.0 0.00 0.00 0.00 94 1010.1
20260905090559 74 277 0.0 1.0 0.00 0.00 0.00 94 1010.2
20260905090132 74 277 0.0 1.0 0.00 0.00 0.00 94 1010.2
20260905085600 74 277 0.0 1.0 0.00 0.00 0.00 94 1010.2
20260905085100 74 277 0.0 1.0 0.00 0.00 0.00 94 1010.3
20260905084612 74 277 0.0 2.0 0.00 0.00 0.00 94 1010.2
20260905084059 74 277 1.0 2.0 0.00 0.00 0.00 94 1010.2
20260905083559 74 277 0.0 2.0 0.00 0.00 0.00 94 1010.2
20260905083059 74 277 0.0 0.0 0.00 0.00 0.00 94 1010.1
20260905082558 74 277 0.0 0.0 0.00 0.00 0.00 93 1010.1
20260905082057 74 277 0.0 0.0 0.00 0.00 0.00 93 1010.1
20260905081557 74 277 0.0 0.0 0.00 0.00 0.00 93 1010.1
20260905081056 74 277 0.0 0.0 0.00 0.00 0.00 94 1010.1
20260905080558 74 277 0.0 0.0 0.00 0.00 0.00 94 1010.1
20260905080100 74 277 0.0 0.0 0.00 0.00 0.00 94 1010.2
20260905075557 74 277 0.0 0.0 0.00 0.00 0.00 93 1010.1
20260905075056 74 277 0.0 1.0 0.00 0.00 0.00 93 1010.1
20260905074556 74 277 0.0 1.0 0.00 0.00 0.00 93 1010.1
20260905074055 74 277 0.0 0.0 0.00 0.00 0.00 92 1010.2
20260905073555 74 277 0.0 0.0 0.00 0.00 0.00 92 1010.1
20260905073054 75 277 0.0 0.0 0.00 0.00 0.00 92 1010.1
20260905072553 75 277 0.0 0.0 0.00 0.00 0.00 92 1010.2
20260905072052 75 277 0.0 0.0 0.00 0.00 0.00 92 1010.3
20260905071551 75 277 0.0 0.0 0.00 0.00 0.00 92 1010.3
20260905071052 75 277 0.0 0.0 0.00 0.00 0.00 92 1010.2
20260905070553 76 277 0.0 0.0 0.00 0.00 0.00 92 1010.3
20260905070050 76 277 0.0 0.0 0.00 0.00 0.00 92 1010.3
20260905065549 76 277 0.0 0.0 0.00 0.00 0.00 92 1010.3
20260905065049 76 277 0.0 0.0 0.00 0.00 0.00 92 1010.2
20260905064549 76 277 0.0 0.0 0.00 0.00 0.00 92 1010.3
20260905064052 76 277 0.0 0.0 0.00 0.00 0.00 92 1010.3
20260905063548 76 277 0.0 0.0 0.00 0.00 0.00 93 1010.3
20260905063048 76 277 0.0 0.0 0.00 0.00 0.00 93 1010.4
20260905062548 76 277 0.0 1.0 0.00 0.00 0.00 93 1010.5
20260905062047 76 277 0.0 1.0 0.00 0.00 0.00 92 1010.5
20260905061549 76 277 0.0 1.0 0.00 0.00 0.00 92 1010.4
20260905061045 76 277 0.0 0.0 0.00 0.00 0.00 92 1010.4
20260905060544 77 277 0.0 0.0 0.00 0.00 0.00 92 1010.6
20260905060046 77 277 0.0 0.0 0.00 0.00 0.00 92 1010.6
20260905055543 77 277 0.0 0.0 0.00 0.00 0.00 92 1010.6
20260905055043 77 277 0.0 0.0 0.00 0.00 0.00 92 1010.6
20260905054543 77 277 0.0 0.0 0.00 0.00 0.00 92 1010.6
20260905054042 77 277 0.0 0.0 0.00 0.00 0.00 92 1010.6
20260905053542 77 277 0.0 0.0 0.00 0.00 0.00 92 1010.6
20260905053043 77 277 0.0 0.0 0.00 0.00 0.00 92 1010.6
20260905052540 77 277 0.0 0.0 0.00 0.00 0.00 92 1010.7
20260905052042 77 277 0.0 0.0 0.00 0.00 0.00 93 1010.8
20260905051538 77 277 0.0 0.0 0.00 0.00 0.00 93 1010.8
20260905051039 77 277 0.0 0.0 0.00 0.00 0.00 93 1010.8
20260905050538 77 277 0.0 0.0 0.00 0.00 0.00 94 1010.8
20260905050037 77 277 0.0 0.0 0.00 0.00 0.00 94 1010.8
20260905045536 77 277 0.0 0.0 0.00 0.00 0.00 93 1010.8
20260905045040 77 277 0.0 1.0 0.00 0.00 0.00 93 1010.9
20260905044537 77 277 0.0 2.0 0.00 0.00 0.00 94 1010.8
20260905044036 77 277 0.0 2.0 0.00 0.00 0.00 93 1010.9
20260905043536 77 277 0.0 0.0 0.00 0.00 0.00 94 1010.9
20260905043036 76 277 0.0 0.0 0.00 0.00 0.00 93 1010.9
20260905042535 76 277 0.0 0.0 0.00 0.00 0.00 93 1011.0
20260905042035 76 277 0.0 0.0 0.00 0.00 0.00 93 1011.0
20260905041547 76 277 0.0 0.0 0.00 0.00 0.00 93 1011.0
20260905041035 76 277 0.0 0.0 0.00 0.00 0.00 93 1011.0
20260905040535 76 277 0.0 0.0 0.00 0.00 0.00 93 1010.9
20260905040035 76 277 0.0 0.0 0.00 0.00 0.00 93 1011.0
20260905035534 76 277 0.0 0.0 0.00 0.00 0.00 93 1011.0
20260905035034 76 277 0.0 0.0 0.00 0.00 0.00 93 1011.0
20260905034539 76 277 0.0 0.0 0.00 0.00 0.00 93 1011.0
20260905034034 77 277 0.0 0.0 0.00 0.00 0.00 93 1011.0
20260905033535 77 277 0.0 0.0 0.00 0.00 0.00 93 1011.1
20260905033034 77 277 0.0 0.0 0.00 0.00 0.00 93 1011.2
20260905032534 76 277 0.0 0.0 0.00 0.00 0.00 92 1011.2
20260905032134 77 277 0.0 0.0 0.00 0.00 0.00 92 1011.1
20260905031535 77 277 0.0 0.0 0.00 0.00 0.00 92 1011.1
20260905031033 77 277 0.0 0.0 0.00 0.00 0.00 92 1011.0
20260905030533 77 277 0.0 0.0 0.00 0.00 0.00 92 1011.1
20260905030033 77 277 0.0 0.0 0.00 0.00 0.00 92 1011.1
20260905025535 77 277 0.0 0.0 0.00 0.00 0.00 92 1011.0
20260905025034 77 277 0.0 0.0 0.00 0.00 0.00 91 1011.0
20260905024533 77 277 0.0 0.0 0.00 0.00 0.00 92 1011.0
20260905024032 77 277 0.0 0.0 0.00 0.00 0.00 91 1010.9
20260905023532 77 277 0.0 0.0 0.00 0.00 0.00 91 1010.8
20260905023033 78 277 0.0 0.0 0.00 0.00 0.00 91 1010.7
20260905022536 78 277 0.0 0.0 0.00 0.00 0.00 91 1010.7
20260905022032 78 277 0.0 0.0 0.00 0.00 0.00 90 1010.7
20260905021535 78 277 0.0 0.0 0.00 0.00 0.00 90 1010.8
20260905021031 78 277 0.0 0.0 0.00 0.00 0.00 90 1010.7
20260905020533 78 277 0.0 0.0 0.00 0.00 0.00 90 1010.7
20260905020033 79 277 0.0 0.0 0.00 0.00 0.00 90 1010.7
20260905015535 79 277 0.0 0.0 0.00 0.00 0.00 90 1010.5
20260905015031 79 277 0.0 0.0 0.00 0.00 0.00 90 1010.4
20260905014530 79 277 0.0 0.0 0.00 0.00 0.00 90 1010.4
20260905014031 79 277 0.0 0.0 0.00 0.00 0.00 89 1010.3
20260905013534 79 277 0.0 0.0 0.00 0.00 0.00 89 1010.2
20260905013030 79 277 0.0 0.0 0.00 0.00 0.00 88 1010.0
20260905012532 80 277 0.0 0.0 0.00 0.00 0.00 87 1009.9
20260905012030 81 277 0.0 0.0 0.00 0.00 0.00 87 1009.9
20260905011530 81 277 0.0 0.0 0.00 0.00 0.00 86 1010.0
20260905011030 82 277 0.0 0.0 0.00 0.00 0.00 86 1010.0
20260905010530 82 277 0.0 0.0 0.00 0.00 0.00 85 1010.0
20260905010029 83 277 0.0 0.0 0.00 0.00 0.00 85 1010.0
20260905005529 83 277 0.0 0.0 0.00 0.00 0.00 84 1010.1
20260905005029 84 277 0.0 0.0 0.00 0.00 0.00 84 1009.9
20260905004530 84 277 0.0 0.0 0.00 0.00 0.00 83 1009.9
20260905004029 84 277 0.0 0.0 0.00 0.00 0.00 82 1009.9
20260905003533 85 277 0.0 0.0 0.00 0.00 0.00 81 1009.8
20260905003029 86 277 0.0 0.0 0.00 0.00 0.00 80 1009.9
20260905002528 87 277 0.0 0.0 0.00 0.00 0.00 78 1009.8
20260905002031 88 277 0.0 0.0 0.00 0.00 0.00 77 1009.8
20260905001528 90 277 0.0 0.0 0.00 0.00 0.00 75 1009.8
20260905001028 91 277 0.0 0.0 0.00 0.00 0.00 73 1009.9
20260905000528 91 277 0.0 0.0 0.00 0.00 0.00 69 1009.9
20260905000028 91 277 0.0 0.0 0.00 0.00 0.00 68 1009.9
20260904235527 92 277 0.0 0.0 0.00 0.00 0.00 68 1009.9
20260904235027 92 277 0.0 0.0 0.00 0.00 0.00 67 1009.9
20260904234527 92 277 0.0 0.0 0.00 0.00 0.00 68 1009.9
20260904234027 93 277 0.0 0.0 0.00 0.00 0.00 69 1009.9
20260904233528 93 277 0.0 1.0 0.00 0.00 0.00 68 1009.9
20260904233027 93 277 0.0 1.0 0.00 0.00 0.00 66 1009.9
20260904232526 93 277 0.0 1.0 0.00 0.00 0.00 66 1009.8
20260904232027 94 277 0.0 2.0 0.00 0.00 0.00 66 1009.8